www.pogodaiklimat.ru

Погода и климат >> Архив погоды >> Австралия >> Южная Австралия >> Однадатта


ПОГОДА в Однадатте

  • Прогноз погоды в Однадатте
  • Монитор погоды в Однадатте

АРХИВ ПОГОДЫ в Однадатте

Время (UTC), дата Ветер
(напр.,м/с)
 
Видим.   Явления Облачность Т
(С)
Тd
(С)
f
(%)
Тe
(С)
Тes
(С)
Комфортность P
(гПа)
Po
(гПа)
Тmin
(С)
Tmax
(С)
R
(мм)
R24
(мм)
S
(см)
13 15.08 СВ 6 н/о н/о +15.9 -9.1 17 +15 +15 1018.6 1004.6
14 15.08 С 6 н/о н/о +15.7 -9.2 17 +15 +15 1018.4 1004.4 +25.7
16 15.08 С 4 н/о н/о +13.9 -9.3 19 +13 +13 1017.9 1003.9
17 15.08 С 3 н/о н/о +13.1 -9.3 20 +12 +12 1017.5 1003.5
19 15.08 СЗ 3 н/о н/о +8.1 -10.2 26 +6 +6 1017.0 1003.1
20 15.08 СЗ 3 н/о н/о +7.8 -10.0 27 +6 +6 1017.5 1003.5
22 15.08 С 3 н/о н/о +9.3 -9.2 26 +8 +8 1018.9 1004.9
23 15.08 С 2 н/о н/о +13.1 -8.7 21 +13 +13 1019.5 1005.5
01 16.08 СЗ 5 н/о н/о +22.1 -8.6 12 +20 +20 1019.2 1005.2
02 16.08 СЗ 5 н/о н/о +23.8 -8.4 11 +21 +21 комфорт 1018.6 1004.6 +6.4
04 16.08 СЗ 6 н/о н/о +26.6 -8.8 9 +23 +23 комфорт 1016.8 1002.9
05 16.08 СЗ 5 н/о н/о +26.9 -8.6 9 +24 +24 комфорт 1016.3 1002.4
07 16.08 Ю 4 н/о н/о +26.6 -7.5 10 +24 +24 комфорт 1016.0 1002.1
08 16.08 Ю 3 н/о н/о +26.2 -6.5 11 +23 +23 комфорт 1016.2 1002.3
10 16.08 Ю 3 н/о н/о +20.7 -6.8 15 +21 +21 комфорт 1017.0 1003.1
11 16.08 Ю 5 н/о н/о +18.4 -7.1 17 +18 +18 1017.5 1003.5
13 16.08 Ю 6 н/о н/о +16.7 -4.5 23 +16 +16 1017.7 1003.7
14 16.08 Ю 3 н/о н/о +14.2 -6.1 24 +14 +14 1017.7 1003.7 +28.1
16 16.08 Ю 3 н/о н/о +13.6 -5.5 26 +13 +13 1017.0 1003.1
17 16.08 Ю 3 н/о н/о +12.5 -6.0 27 +12 +12 1016.4 1002.5
19 16.08 В 3 н/о н/о +11.4 -6.9 27 +10 +10 1015.6 1001.7
20 16.08 штиль 0 н/о н/о +10.5 -7.7 27 +11 +11 1015.6 1001.7
22 16.08 С 3 н/о н/о +12.0 -6.9 26 +11 +11 1016.5 1002.6
23 16.08 С 3 н/о н/о +15.2 -7.6 20 +15 +15 1016.9 1003.0
01 17.08 С 8 н/о н/о +22.4 -8.4 12 +20 +20 1016.3 1002.4
02 17.08 С 8 н/о н/о +26.1 -6.6 11 +23 +23 комфорт 1015.3 1001.4 +9.3
04 17.08 С 9 н/о н/о +29.3 -6.8 9 +26 +26 жарко 1012.8 998.9
05 17.08 С 9 н/о н/о +30.0 -6.3 9 +26 +26 жарко 1011.8 997.9
07 17.08 С 8 н/о н/о +30.0 -6.3 9 +26 +26 жарко 1010.9 997.0
08 17.08 С 6 н/о н/о +28.9 -7.1 9 +25 +25 комфорт 1010.9 997.0
10 17.08 СЗ 4 н/о н/о +23.0 -9.0 11 +21 +21 комфорт 1012.0 998.1
11 17.08 СЗ 5 н/о н/о +20.2 -8.1 14 +20 +20 1012.6 998.7
13 17.08 ЮЗ 6 н/о н/о +21.6 +2.3 28 +21 +21 комфорт 1014.1 1000.2
14 17.08 З 3 н/о н/о +20.5 +2.8 31 +21 +21 комфорт 1014.6 1000.7 +30.8
16 17.08 ЮЗ 5 н/о н/о +18.4 +3.1 36 +18 +18 1015.3 1001.4
17 17.08 ЮЗ 4 н/о н/о +16.1 +2.2 39 +16 +16 1015.3 1001.4
19 17.08 ЮЗ 10 н/о н/о +14.0 +2.6 46 +11 +11 1018.0 1004.0
20 17.08 ЮЗ 10 н/о н/о +13.2 +3.6 52 +10 +10 1019.2 1005.2
22 17.08 ЮЗ 6 н/о н/о +11.7 +4.2 60 +9 +9 1021.5 1007.5
23 17.08 ЮЗ 8 н/о н/о +13.1 +4.3 55 +10 +10 1022.4 1008.4
01 18.08 ЮЗ 9 н/о н/о +15.2 +0.2 36 +13 +13 1023.0 1009.0
02 18.08 ЮЗ 11 н/о н/о +16.5 -2.0 28 +15 +15 1022.5 1008.5 +11.4
04 18.08 ЮЗ 10 н/о н/о +19.0 -4.4 20 +18 +18 1021.3 1007.3
05 18.08 З 11 н/о н/о +18.7 -4.7 20 +18 +18 1020.7 1006.7
07 18.08 ЮЗ 10 н/о н/о +19.5 -7.0 16 +18 +18 1021.0 1007.0
08 18.08 ЮЗ 10 н/о н/о +18.2 -5.8 19 +17 +17 1021.8 1007.8
10 18.08 ЮЗ 7 н/о н/о +15.7 -2.7 28 +14 +14 1024.1 1010.1
11 18.08 ЮЗ 7 н/о н/о +14.5 -2.0 32 +13 +13 1025.2 1011.1
13 18.08 Ю 8 н/о н/о +12.6 -0.6 40 +10 +10 1026.8 1012.7
14 18.08 Ю 6 н/о н/о +11.4 +0.2 46 +9 +9 1027.7 1013.6 +22.3
16 18.08 Ю 7 н/о н/о +9.7 +0.3 52 +6 +6 1028.2 1014.1
17 18.08 Ю 6 н/о н/о +9.2 +0.6 55 +6 +6 1028.5 1014.4
19 18.08 Ю 5 н/о н/о +7.0 +0.5 63 +3 +3 1028.9 1014.8
20 18.08 Ю 4 н/о н/о +6.0 +0.1 66 +2 +2 1029.6 1015.5
22 18.08 Ю 5 н/о н/о +5.6 0.0 67 +2 +2 1031.4 1017.3
23 18.08 Ю 8 н/о н/о +7.7 +0.7 61 +3 +3 1032.4 1018.2
01 19.08 Ю 9 н/о н/о +12.3 +1.0 46 +9 +9 1033.3 1019.1
02 19.08 Ю 9 н/о н/о +14.1 +0.4 39 +12 +12 1032.8 1018.6 +5.2
04 19.08 Ю 8 н/о н/о +15.5 -1.5 31 +14 +14 1030.7 1016.6
05 19.08 Ю 8 н/о н/о +16.3 -1.7 29 +15 +15 1030.3 1016.2
07 19.08 Ю 8 н/о н/о +16.1 -1.5 30 +15 +15 1030.2 1016.1
08 19.08 Ю 8 н/о н/о +15.7 -0.9 32 +14 +14 1030.4 1016.3
10 19.08 Ю 6 н/о н/о +13.3 -1.8 35 +12 +12 1031.9 1017.7
11 19.08 Ю 5 н/о н/о +12.3 -2.0 37 +11 +11 1032.7 1018.5
13 19.08 Ю 2 н/о н/о +9.0 -2.9 43 +8 +8 1033.5 1019.3
14 19.08 Ю 3 н/о н/о +8.1 -3.1 45 +6 +6 1033.3 1019.1 +17.3
16 19.08 ЮВ 1 н/о н/о +5.6 -5.1 46 +6 +6 1033.3 1019.1
17 19.08 Ю 3 н/о н/о +5.8 -3.8 50 +3 +3 1033.2 1019.0
19 19.08 штиль 0 н/о н/о +5.2 -3.6 53 +5 +5 1033.1 1018.9
20 19.08 Ю 2 н/о н/о +2.8 -7.1 48 +1 +1 1033.6 1019.4
22 19.08 Ю 2 н/о н/о +3.7 -4.7 54 +2 +2 1035.2 1021.0
23 19.08 Ю 2 н/о н/о +7.0 -3.0 49 +5 +5 1036.1 1021.9
01 20.08 ЮВ 6 н/о н/о +14.3 -0.2 37 +13 +13 1036.4 1022.2
02 20.08 ЮВ 8 н/о н/о +15.7 +0.3 35 +14 +14 1035.7 1021.5 +1.7
04 20.08 ЮВ 7 н/о н/о +17.8 0.0 30 +17 +17 1033.3 1019.1
05 20.08 Ю 4 н/о н/о +17.7 -0.5 29 +17 +17 1032.6 1018.4
07 20.08 ЮВ 5 н/о н/о +18.3 -0.5 28 +18 +18 1031.3 1017.2
08 20.08 ЮВ 6 н/о н/о +18.0 -0.3 29 +18 +18 1031.4 1017.3
10 20.08 Ю 5 н/о н/о +15.2 +0.2 36 +14 +14 1032.1 1017.9
11 20.08 Ю 5 н/о н/о +13.8 +0.5 40 +12 +12 1032.5 1018.3
13 20.08 Ю 4 н/о н/о +11.4 +0.2 46 +10 +10 1032.3 1018.1
14 20.08 Ю 3 н/о н/о +10.4 -0.1 48 +9 +9 1032.2 1018.0 +19.3
16 20.08 Ю 2 н/о н/о +8.2 -0.8 53 +7 +7 1031.4 1017.3
17 20.08 ЮВ 2 н/о н/о +7.2 -1.2 55 +6 +6 1031.3 1017.2
19 20.08 Ю 4 н/о н/о +5.9 -2.2 56 +3 +3 1030.9 1016.8
20 20.08 Ю 4 н/о н/о +5.2 -2.4 58 +2 +2 1031.5 1017.4
22 20.08 Ю 2 н/о н/о +4.7 -3.1 57 +3 +3 1032.8 1018.6
23 20.08 ЮВ 4 н/о н/о +9.3 +1.7 59 +7 +7 1033.5 1019.3
01 21.08 ЮВ 5 н/о н/о +15.4 +4.2 47 +14 +14 1033.2 1019.0
04 21.08 ЮВ 5 н/о н/о +19.1 +3.3 35 +19 +19 1029.9 1015.8
05 21.08 Ю 5 н/о н/о +20.2 +3.4 33 +21 +21 комфорт 1029.0 1014.9
07 21.08 Ю 5 н/о н/о +20.9 +2.7 30 +21 +21 комфорт 1027.9 1013.8
08 21.08 Ю 6 н/о н/о +19.9 +2.7 32 +20 +20 1027.9 1013.8
10 21.08 ЮВ 4 н/о н/о +16.2 +1.9 38 +16 +16 1028.5 1014.4
11 21.08 Ю 4 н/о н/о +14.7 +1.6 41 +14 +14 1028.6 1014.5
13 21.08 Ю 4 н/о н/о +12.6 +2.7 51 +11 +11 1028.8 1014.7
14 21.08 ЮВ 3 н/о н/о +11.8 +2.8 54 +11 +11 1028.7 1014.6
16 21.08 Ю 4 н/о н/о +9.9 +2.0 58 +8 +8 1028.7 1014.6
17 21.08 Ю 2 н/о н/о +9.3 +2.2 61 +8 +8 1028.3 1014.2
19 21.08 штиль 0 н/о н/о +7.1 +1.2 66 +7 +7 1028.1 1014.0
20 21.08 Ю 2 н/о н/о +7.0 +1.5 68 +6 +6 1028.2 1014.1
22 21.08 Ю 3 н/о н/о +5.4 -1.3 62 +2 +2 1029.2 1015.1
23 21.08 Ю 4 н/о н/о +9.8 +2.2 59 +8 +8 1029.5 1015.4
01 22.08 В 5 н/о н/о +17.0 +4.3 43 +16 +16 1029.4 1015.3
02 22.08 В 6 н/о н/о +19.5 +4.4 37 +20 +20 1028.4 1014.3
04 22.08 В 6 н/о н/о +21.4 +3.6 31 +22 +22 комфорт 1026.2 1012.1
05 22.08 ЮВ 5 н/о н/о +21.7 +2.9 29 +22 +22 комфорт 1025.5 1011.4
07 22.08 ЮВ 5 н/о н/о +22.6 +2.7 27 +22 +22 комфорт 1024.6 1010.5
08 22.08 ЮВ 4 н/о н/о +21.6 +2.3 28 +21 +21 комфорт 1024.5 1010.4
10 22.08 ЮВ 5 н/о н/о +16.6 +0.7 34 +16 +16 1025.2 1011.1
11 22.08 В 4 н/о н/о +14.7 +0.5 38 +14 +14 1025.7 1011.6
13 22.08 В 5 н/о н/о +13.4 +1.7 45 +12 +12 1025.9 1011.8

 

Местоположение метеостанции Однадатта (Южная Австралия, Австралия): широта -27.55 долгота 135.45 высота над уровнем моря 117 м.

В архиве по умолчанию представлена погода в Однадатте за последнюю неделю. Архивные данные за месяц целиком и за предыдущие месяцы, начиная с января 2011 года, Вы можете получить, выбрав интересующий диапазон дат из раскрывающегося списка и нажав кнопку "Ввод!".


*Определитесь, кто Вы:
робот инопланетянин человек

Внимание! Время в таблицах - всемирное. Для получения местного времени необходимо прибавить поправку, которая равна 9.5 ч.

Смотрите также архив погоды в соседних городах и на ближайших метеорологических станциях:

Погода в Кубер-Педи (Южная Австралия, Австралия) (180 км)
Погода в Марри (Южная Австралия, Австралия) (346 км)
Погода в Эрнабелле (Южная Австралия, Австралия) (354 км)
Погода в Олимпик Дэм (Южная Австралия, Австралия) (354 км)
Погода в Таркуле (Южная Австралия, Австралия) (363 км)
Погода на Аэродроме Вумера (Южная Австралия, Австралия) (422 км)
Погода в Бердсвилле (Квинсленд, Австралия) (429 км)
Погода в Ли-Крике (Южная Австралия, Австралия) (445 км)
Погода в Элис-Спрингсе (Северная территория, Австралия) (446 км)
Погода в Мумбе (Южная Австралия, Австралия) (471 км)

Пояснения к столбцам:

Ветер - указаны скорость ветра в м/с - средняя за 10 мин, порывы в срок и между сроками (в фигурных скобках) и направление, откуда дует ветер: С - северный, СВ - северо-восточный, В - восточный, ЮВ - юго-восточный, Ю - южный, ЮЗ - юго-западный, З - западный, СЗ - северо-западный.
Видимость - горизонтальная дальность видимости в метрах или километрах. При видимости от 1 до 10 км при отсутствии осадков обычно наблюдается дымка, при ухудшении видимости до 1 км и менее - туман. В сухую погоду видимость может ухудшаться дымом, пылью или мглою.
Явления - указаны атмосферные явления, наблюдавшиеся в срок или в последний час перед сроком; фигурными скобками обозначены явления, наблюдавшиеся между сроками (за 1-3 часа до срока); квадратными скобками обозначены град или гололедные отложения с указанием их диаметра в мм.
Облачность - указаны через наклонную черту общая и нижняя облачность в баллах и высота нижней границы облаков в метрах; квадратными скобками обозначены формы облаков: Ci - перистые, Cs - перисто-слоистые, Cc - перисто-кучевые, Ac - высококучевые, As - высокослоистые, Sc - слоисто-кучевые, Ns - слоисто-дождевые, Cu - кучевые, Cb - кучево-дождевые. Подробнее классификацию облаков см. в Атласе облаков (PDF).
T - Температура воздуха - температура, измеренная на высоте 2 м над землей.
Td - Температура точки росы - температура, при понижении до которой содержащийся в воздухе водяной пар достигнет насыщения.
f - Относительная влажность воздуха - влажноcть воздуха, измеренная на высоте 2 м над землей.
Te - Эффективная температура - температура, которую ощущает одетый по сезону человек в тени. Характеристика душности погоды. При расчете учитывается влияние влажности воздуха и скорости ветра на теплоощущения человека.
Tes - Эффективная температура на солнце - температура, которую ощущает человек, с поправкой на солнечный нагрев. Характеристика знойности погоды. Зависит от высоты солнца над горизонтом, облачности и скорости ветра. Ночью, в пасмурную погоду, а также при ветре 12 м/с и более поправка равна нулю.
P - Атмосферное давление - приведенное к уровню моря атмосферное давление.
Po - Атмосферное давление - измеренное на уровне метеостанции атмосферное давление.
Tmin - Минимальная температура - минимум температуры воздуха на высоте 2 м над землей.
Tmax - Максимальная температура - максимум температуры воздуха на высоте 2 м над землей.
R - Количество осадков - Количество выпавших осадков за период времени, мм. При наведении курсора мыши на число - период времени, за который выпало указанное количество осадков.
R24 - Количество осадков - Количество выпавших осадков за 24 часа, мм.
S - Снежный покров - Высота снежного покрова, см. При наведении курсора мыши на число - состояние снежного покрова и степень покрытия местности в баллах.